Starlink 32783

operational
NORAD ID: 62606 Int'l Des: 2025-008 Owner: SPXS Country: US Constellation: starlink
LEOCIRCULAR

关于 Starlink 32783

正在加载描述...

实时位置

正在加载3D地球...

即将过境

高度历史

Altitude vs Time

uPlot chart will show altitude changes over time

两行轨道根数

1 62606U 25008V 25260.08032214 .00002445 00000-0 98296-4 0 9993
2 62606 43.0006 178.3275 0000325 189.0171 171.0675 15.27588986 39014
Epoch: Sep 17, 2025 • Age: 19 hours

当前状态

高度 485.9 km
速度 7.63 km/s
星下点 41.34°N, 69.73°W
发射日期 Jan 13, 2025
运行时间 0.6 years
类型 internet

技术详情

分类 Payload
质量 730.00 kg
干质量 700.00 kg
总质量 730.00 kg
长度 0.30 m
直径 4.10 m
跨度 29.00 m
形状 Box + pan
制造商 SPXS
平台类型 Starlink V2M
阶段状态 In Orbit
所有者/国家 SPXS/US

大型星座

Loading constellations...